OE7WDJ Weather Reports


time (UTC)temp
C
wind
direction
speed
KPH
gust
KPH
rain 1hr
cm
rain 24hr
cm
rain mn
cm
humidity
%
barometer
mb
20260903073502 18 112 0.0 0.0 0.00 0.00 0.00 70 1020.9
20260903072503 18 112 0.0 0.0 0.00 0.00 0.00 73 1021.0
20260903070503 18 112 0.0 0.0 0.00 0.00 0.00 77 1021.2
20260903065502 17 112 0.0 0.0 0.00 0.00 0.00 80 1021.2
20260903065004 17 112 0.0 0.0 0.00 0.00 0.00 81 1021.1
20260903064503 16 112 0.0 0.0 0.00 0.00 0.00 82 1021.0
20260903063503 16 248 0.0 0.0 0.00 0.00 0.00 86 1021.2
20260903062503 14 248 0.0 0.0 0.00 0.00 0.00 89 1021.0
20260903062004 13 248 0.0 0.0 0.00 0.00 0.00 88 1021.1
20260903061503 13 248 0.0 0.0 0.00 0.00 0.00 88 1021.0
20260903061003 13 248 0.0 0.0 0.00 0.00 0.00 88 1021.0
20260903060003 13 248 0.0 0.0 0.00 0.00 0.00 88 1021.2
20260903055503 13 248 0.0 0.0 0.00 0.00 0.00 88 1021.1
20260903055003 12 248 0.0 0.0 0.00 0.00 0.00 88 1021.1
20260903052503 12 248 0.0 0.0 0.00 0.00 0.00 87 1020.9
20260903050503 12 248 0.0 0.0 0.00 0.00 0.00 87 1020.8
20260903045503 12 248 0.0 0.0 0.00 0.00 0.00 87 1020.9
20260903044003 12 248 0.0 0.0 0.00 0.00 0.00 87 1020.6
20260903042503 12 248 0.0 0.0 0.00 0.00 0.00 87 1020.5
20260903042003 12 248 0.0 0.0 0.00 0.00 0.00 87 1020.4
20260903041502 12 248 0.0 0.0 0.00 0.00 0.00 87 1020.3
20260903041004 12 248 0.0 0.0 0.00 0.00 0.00 87 1020.5
20260903040504 12 248 0.0 0.0 0.00 0.00 0.00 87 1020.3
20260902195004 18 248 0.0 0.0 0.00 0.00 0.00 69 1019.2
20260902194503 18 270 0.0 0.0 0.00 0.00 0.00 69 1019.2
20260902192005 18 270 0.0 0.0 0.00 0.00 0.00 70 1019.0
20260902185503 18 270 0.0 0.0 0.00 0.00 0.00 69 1018.7
20260902185004 18 248 0.0 0.0 0.00 0.00 0.00 69 1018.6
20260902184503 18 248 8.0 0.0 0.00 0.00 0.00 69 1018.5
20260902182503 18 270 0.0 0.0 0.00 0.00 0.00 68 1018.1
20260902181503 18 270 0.0 0.0 0.00 0.00 0.00 69 1018.0
20260902175005 18 270 0.0 0.0 0.00 0.00 0.00 68 1017.8
20260902174505 18 248 0.0 0.0 0.00 0.00 0.00 68 1017.7
20260902174007 18 270 0.0 0.0 0.00 0.00 0.00 68 1017.5
20260902173503 19 248 8.0 0.0 0.00 0.00 0.00 68 1017.4
20260902173006 19 270 0.0 0.0 0.00 0.00 0.00 68 1017.3
20260902172503 19 248 4.8 0.0 0.00 0.00 0.00 68 1017.2
20260902172003 19 248 4.8 0.0 0.00 0.00 0.00 68 1017.2
20260902171003 20 270 0.0 0.0 0.00 0.00 0.00 67 1017.1
20260902170504 20 248 0.0 0.0 0.00 0.00 0.00 65 1017.0
20260902164003 20 248 0.0 0.0 0.00 0.00 0.00 65 1016.8
20260902163503 20 248 0.0 0.0 0.00 0.00 0.00 65 1016.8
20260902163003 20 248 0.0 0.0 0.00 0.00 0.00 65 1016.9
20260902162003 20 248 0.0 0.0 0.00 0.00 0.00 66 1016.8
20260902160006 20 248 0.0 0.0 0.00 0.00 0.00 65 1016.6
20260902155503 20 248 0.0 0.0 0.00 0.00 0.00 65 1016.7
20260902154003 21 248 0.0 0.0 0.00 0.00 0.00 64 1016.5
20260902153503 21 248 1.6 0.0 0.00 0.00 0.00 62 1016.5
20260902153003 21 225 0.0 0.0 0.00 0.00 0.00 60 1016.5
20260902152505 21 248 0.0 0.0 0.00 0.00 0.00 60 1016.5
20260902151503 22 112 0.0 0.0 0.00 0.00 0.00 60 1016.6
20260902150006 24 112 0.0 0.0 0.00 0.00 0.00 55 1016.7
20260902145503 26 112 0.0 0.0 0.00 0.00 0.00 51 1016.6
20260902144503 27 68 0.0 0.0 0.00 0.00 0.00 45 1016.5
20260902144003 27 112 6.4 0.0 0.00 0.00 0.00 46 1016.5
20260902143505 27 112 0.0 0.0 0.00 0.00 0.00 46 1016.5
20260902142503 26 112 4.8 0.0 0.00 0.00 0.00 46 1016.5
20260902142003 26 90 0.0 0.0 0.00 0.00 0.00 49 1016.6
20260902141003 26 112 0.0 0.0 0.00 0.00 0.00 47 1016.8
20260902134503 27 112 0.0 0.0 0.00 0.00 0.00 49 1016.9
20260902134003 27 112 0.0 0.0 0.00 0.00 0.00 46 1016.9
20260902132003 27 112 0.0 0.0 0.00 0.00 0.00 48 1017.0
20260902124503 27 112 0.0 0.0 0.00 0.00 0.00 46 1017.2
20260902123503 28 112 0.0 0.0 0.00 0.00 0.00 46 1017.1
20260902123004 28 68 0.0 0.0 0.00 0.00 0.00 46 1017.4
20260902122504 27 68 3.2 0.0 0.00 0.00 0.00 47 1017.3
20260902122004 27 90 0.0 0.0 0.00 0.00 0.00 46 1017.5
20260902121004 27 90 0.0 0.0 0.00 0.00 0.00 47 1017.5
20260902120005 27 112 0.0 0.0 0.00 0.00 0.00 47 1017.7
20260902115504 27 90 0.0 0.0 0.00 0.00 0.00 48 1017.6
20260902114503 26 112 0.0 0.0 0.00 0.00 0.00 49 1017.8
20260902112503 28 112 8.0 0.0 0.00 0.00 0.00 46 1017.8
20260902111003 28 90 0.0 0.0 0.00 0.00 0.00 45 1017.9
20260902110501 29 112 0.0 0.0 0.00 0.00 0.00 43 1017.9
20260902104504 28 68 0.0 0.0 0.00 0.00 0.00 45 1018.2
20260902104003 28 68 0.0 0.0 0.00 0.00 0.00 47 1018.3
20260902103505 27 135 0.0 0.0 0.00 0.00 0.00 48 1018.4
20260902103004 27 112 0.0 0.0 0.00 0.00 0.00 49 1018.5
20260902102504 26 112 0.0 0.0 0.00 0.00 0.00 51 1018.5
20260902102004 26 112 0.0 0.0 0.00 0.00 0.00 51 1018.6
20260902101004 26 90 0.0 0.0 0.00 0.00 0.00 50 1018.8
20260902100504 26 112 6.4 0.0 0.00 0.00 0.00 50 1018.8
20260902094504 25 112 0.0 0.0 0.00 0.00 0.00 52 1019.1
20260902093504 24 112 0.0 0.0 0.00 0.00 0.00 55 1019.3
20260902092003 22 135 0.0 0.0 0.00 0.00 0.00 58 1019.3
20260902091003 22 158 0.0 0.0 0.00 0.00 0.00 59 1019.6
20260902085503 22 158 0.0 0.0 0.00 0.00 0.00 62 1019.7
20260902085003 21 158 0.0 0.0 0.00 0.00 0.00 62 1019.6
20260902084503 21 135 0.0 0.0 0.00 0.00 0.00 63 1019.6
20260902083004 21 112 0.0 0.0 0.00 0.00 0.00 66 1019.7
20260902082003 20 135 0.0 0.0 0.00 0.00 0.00 67 1019.6
20260902081003 20 135 0.0 0.0 0.00 0.00 0.00 68 1019.6
20260902075503 19 180 0.0 0.0 0.00 0.00 0.00 72 1019.7